QFA842 YSSY-YMML

Flight info

Callsign QFA842
Flight time 1h 4m
Altitude 38000
Route WOL H65 LEECE Q29 ML
Aircraft A35K/H-SDE2E3GHIJ3J4J5LM1ORWXY/LB1D1

Departure

Time 2026-04-26 10:22
Airport Sydney Kingsford Smith International Airport (YSSY)

Arrival

Time 2026-04-26 11:26
Airport Melbourne Airport (YMML)
Time Latitude Longitude Altitude Speed Heading
2026-04-26 09:33 -33.93982 151.16687 27 ft 0 kts 304°
2026-04-26 10:05 -33.93984 151.16691 27 ft 3 kts 304°
2026-04-26 10:05 -33.94000 151.16718 27 ft 4 kts 307°
2026-04-26 10:06 -33.94016 151.16743 27 ft 4 kts 308°
2026-04-26 10:06 -33.94035 151.16765 26 ft 4 kts 329°
2026-04-26 10:06 -33.94060 151.16776 26 ft 4 kts
2026-04-26 10:06 -33.94079 151.16768 25 ft 3 kts 70°
2026-04-26 10:07 -33.94081 151.16760 25 ft 0 kts 74°
2026-04-26 10:09 -33.94080 151.16763 27 ft 2 kts 73°
2026-04-26 10:10 -33.94073 151.16790 27 ft 5 kts 71°
2026-04-26 10:10 -33.94060 151.16844 27 ft 8 kts 74°
2026-04-26 10:10 -33.94042 151.16923 27 ft 11 kts 74°
2026-04-26 10:10 -33.94018 151.17025 27 ft 14 kts 74°
2026-04-26 10:11 -33.93988 151.17151 27 ft 17 kts 74°
2026-04-26 10:11 -33.94047 151.17240 27 ft 15 kts 163°
2026-04-26 10:11 -33.94156 151.17271 28 ft 17 kts 169°
2026-04-26 10:11 -33.94280 151.17304 29 ft 19 kts 166°
2026-04-26 10:12 -33.94410 151.17340 32 ft 20 kts 167°
2026-04-26 10:12 -33.94554 151.17376 32 ft 23 kts 168°
2026-04-26 10:12 -33.94715 151.17418 31 ft 25 kts 168°
2026-04-26 10:12 -33.94901 151.17465 28 ft 29 kts 168°
2026-04-26 10:13 -33.95077 151.17510 30 ft 24 kts 168°
2026-04-26 10:13 -33.95250 151.17554 26 ft 27 kts 167°
2026-04-26 10:13 -33.95444 151.17605 29 ft 29 kts 168°
2026-04-26 10:13 -33.95639 151.17656 29 ft 29 kts 168°
2026-04-26 10:14 -33.95824 151.17705 29 ft 28 kts 167°
2026-04-26 10:14 -33.96008 151.17753 30 ft 17 kts 168°
2026-04-26 10:14 -33.96125 151.17782 30 ft 18 kts 168°
2026-04-26 10:14 -33.96245 151.17814 28 ft 14 kts 167°
2026-04-26 10:15 -33.96338 151.17838 29 ft 0 kts 167°
2026-04-26 10:17 -33.96352 151.17841 29 ft 3 kts 167°
2026-04-26 10:17 -33.96383 151.17850 29 ft 6 kts 167°
2026-04-26 10:17 -33.96424 151.17875 30 ft 8 kts 139°
2026-04-26 10:17 -33.96435 151.17904 30 ft 0 kts 98°
2026-04-26 10:20 -33.96436 151.17913 30 ft 3 kts 96°
2026-04-26 10:20 -33.96433 151.17968 30 ft 7 kts 81°
2026-04-26 10:20 -33.96413 151.18029 30 ft 8 kts 45°
2026-04-26 10:21 -33.96360 151.18044 30 ft 8 kts 354°
2026-04-26 10:21 -33.96126 151.17985 27 ft 73 kts 348°
2026-04-26 10:21 -33.95394 151.17798 28 ft 140 kts 347°
2026-04-26 10:21 -33.94291 151.17513 335 ft 173 kts 350°
2026-04-26 10:22 -33.93054 151.17173 923 ft 190 kts 350°
2026-04-26 10:22 -33.91865 151.16500 1761 ft 188 kts 315°
2026-04-26 10:22 -33.91176 151.15146 2371 ft 195 kts 298°
2026-04-26 10:22 -33.90552 151.13652 2868 ft 204 kts 299°
2026-04-26 10:23 -33.89904 151.12116 3510 ft 207 kts 299°
2026-04-26 10:23 -33.89229 151.10558 4141 ft 212 kts 300°
2026-04-26 10:23 -33.88492 151.09020 4745 ft 217 kts 300°
2026-04-26 10:23 -33.87674 151.07483 5381 ft 220 kts 305°
2026-04-26 10:24 -33.86763 151.05953 5910 ft 230 kts 305°
2026-04-26 10:24 -33.85789 151.04343 6317 ft 246 kts 306°
2026-04-26 10:24 -33.84804 151.02622 6783 ft 257 kts 297°
2026-04-26 10:24 -33.84265 151.00506 7119 ft 272 kts 279°
2026-04-26 10:25 -33.84169 150.98211 7655 ft 278 kts 262°
2026-04-26 10:25 -33.84852 150.96048 8272 ft 282 kts 233°
2026-04-26 10:25 -33.86388 150.94596 8851 ft 285 kts 201°
2026-04-26 10:25 -33.88322 150.94033 9523 ft 288 kts 188°
2026-04-26 10:26 -33.90295 150.93663 10168 ft 293 kts 188°
2026-04-26 10:26 -33.92363 150.93262 10502 ft 309 kts 189°
2026-04-26 10:26 -33.94538 150.92812 10779 ft 325 kts 189°
2026-04-26 10:26 -33.96813 150.92324 11064 ft 340 kts 189°
2026-04-26 10:27 -33.99192 150.91803 11314 ft 354 kts 189°
2026-04-26 10:27 -34.01646 150.91260 11705 ft 362 kts 190°
2026-04-26 10:27 -34.04135 150.90706 12237 ft 365 kts 190°
2026-04-26 10:27 -34.06640 150.90147 12828 ft 367 kts 190°
2026-04-26 10:28 -34.09169 150.89583 13382 ft 370 kts 190°
2026-04-26 10:28 -34.11678 150.89021 13933 ft 373 kts 190°
2026-04-26 10:28 -34.14243 150.88448 14423 ft 376 kts 190°
2026-04-26 10:28 -34.16831 150.87868 14880 ft 380 kts 190°
2026-04-26 10:29 -34.19448 150.87283 15370 ft 383 kts 189°
2026-04-26 10:29 -34.22082 150.86693 15855 ft 386 kts 189°
2026-04-26 10:29 -34.24732 150.86097 16327 ft 389 kts 189°
2026-04-26 10:29 -34.27371 150.85504 16823 ft 392 kts 189°
2026-04-26 10:30 -34.30068 150.84899 17263 ft 396 kts 190°
2026-04-26 10:30 -34.32786 150.84288 17733 ft 399 kts 189°
2026-04-26 10:30 -34.35531 150.83672 18215 ft 402 kts 189°
2026-04-26 10:30 -34.38291 150.83050 18645 ft 405 kts 190°
2026-04-26 10:31 -34.41071 150.82422 19064 ft 408 kts 189°
2026-04-26 10:31 -34.43871 150.81792 19513 ft 409 kts 189°
2026-04-26 10:31 -34.46692 150.81156 19926 ft 412 kts 189°
2026-04-26 10:31 -34.49517 150.80518 20331 ft 415 kts 190°
2026-04-26 10:32 -34.52326 150.79647 20738 ft 417 kts 198°
2026-04-26 10:32 -34.54969 150.78170 21148 ft 420 kts 211°
2026-04-26 10:32 -34.57322 150.76066 21506 ft 423 kts 222°
2026-04-26 10:32 -34.59374 150.73498 21933 ft 425 kts 229°
2026-04-26 10:33 -34.61221 150.70678 22317 ft 427 kts 233°
2026-04-26 10:33 -34.62940 150.67769 22674 ft 430 kts 235°
2026-04-26 10:33 -34.64645 150.64779 23074 ft 432 kts 235°
2026-04-26 10:33 -34.66370 150.61758 23421 ft 435 kts 235°
2026-04-26 10:34 -34.68112 150.58751 23787 ft 437 kts 234°
2026-04-26 10:34 -34.69885 150.55735 24087 ft 439 kts 234°
2026-04-26 10:34 -34.71679 150.52720 24385 ft 441 kts 234°
2026-04-26 10:34 -34.73489 150.49696 24738 ft 442 kts 234°
2026-04-26 10:35 -34.75302 150.46677 25059 ft 443 kts 234°
2026-04-26 10:35 -34.77121 150.43647 25374 ft 445 kts 234°
2026-04-26 10:35 -34.78949 150.40597 25696 ft 446 kts 234°
2026-04-26 10:35 -34.80779 150.37539 26022 ft 448 kts 234°
2026-04-26 10:36 -34.82613 150.34470 26366 ft 449 kts 234°
2026-04-26 10:36 -34.84427 150.31431 26715 ft 450 kts 234°
2026-04-26 10:36 -34.86265 150.28348 27065 ft 452 kts 234°
2026-04-26 10:36 -34.88117 150.25237 27422 ft 453 kts 234°
2026-04-26 10:37 -34.89970 150.22124 27788 ft 455 kts 234°
2026-04-26 10:37 -34.91833 150.18990 28164 ft 456 kts 234°
2026-04-26 10:37 -34.93696 150.15854 28551 ft 458 kts 234°
2026-04-26 10:37 -34.95565 150.12704 28975 ft 459 kts 234°
2026-04-26 10:38 -34.97441 150.09542 29354 ft 461 kts 234°
2026-04-26 10:38 -34.99303 150.06399 29703 ft 463 kts 234°
2026-04-26 10:38 -35.01192 150.03207 30078 ft 466 kts 234°
2026-04-26 10:38 -35.03096 149.99988 30449 ft 468 kts 234°
2026-04-26 10:39 -35.05005 149.96757 30786 ft 470 kts 234°
2026-04-26 10:39 -35.06927 149.93506 31120 ft 473 kts 234°
2026-04-26 10:39 -35.08854 149.90238 31456 ft 475 kts 234°
2026-04-26 10:39 -35.10786 149.86956 31765 ft 477 kts 234°
2026-04-26 10:40 -35.12727 149.83657 32089 ft 478 kts 234°
2026-04-26 10:40 -35.14647 149.80390 32399 ft 480 kts 234°
2026-04-26 10:40 -35.16600 149.77066 32687 ft 482 kts 234°
2026-04-26 10:40 -35.18557 149.73732 32960 ft 484 kts 234°
2026-04-26 10:41 -35.20521 149.70384 33246 ft 485 kts 234°
2026-04-26 10:41 -35.22488 149.67025 33661 ft 484 kts 234°
2026-04-26 10:41 -35.24447 149.63678 34114 ft 482 kts 234°
2026-04-26 10:41 -35.26394 149.60348 34511 ft 480 kts 234°
2026-04-26 10:42 -35.28309 149.57070 34895 ft 478 kts 234°
2026-04-26 10:42 -35.30243 149.53756 35276 ft 477 kts 234°
2026-04-26 10:42 -35.32176 149.50442 35596 ft 477 kts 234°
2026-04-26 10:42 -35.34104 149.47132 35911 ft 477 kts 234°
2026-04-26 10:43 -35.36029 149.43823 36253 ft 477 kts 234°
2026-04-26 10:43 -35.37949 149.40522 36577 ft 476 kts 235°
2026-04-26 10:43 -35.39875 149.37206 36892 ft 476 kts 235°
2026-04-26 10:43 -35.41799 149.33890 37215 ft 476 kts 235°
2026-04-26 10:44 -35.43720 149.30577 37541 ft 475 kts 235°
2026-04-26 10:44 -35.45630 149.27280 37852 ft 474 kts 235°
2026-04-26 10:44 -35.47543 149.23974 38135 ft 474 kts 235°
2026-04-26 10:44 -35.49423 149.20721 38285 ft 467 kts 236°
2026-04-26 10:45 -35.51269 149.17527 38289 ft 451 kts 236°
2026-04-26 10:45 -35.53052 149.14440 38297 ft 435 kts 236°
2026-04-26 10:45 -35.56487 149.08482 38305 ft 423 kts 236°
2026-04-26 10:46 -35.59879 149.02581 38332 ft 422 kts 236°
2026-04-26 10:46 -35.63264 148.96685 38335 ft 422 kts 236°
2026-04-26 10:47 -35.66623 148.90825 38342 ft 422 kts 236°
2026-04-26 10:47 -35.70006 148.84916 38346 ft 422 kts 236°
2026-04-26 10:48 -35.73380 148.79012 38353 ft 420 kts 236°
2026-04-26 10:48 -35.76735 148.73131 38351 ft 419 kts 236°
2026-04-26 10:49 -35.80086 148.67248 38353 ft 419 kts 236°
2026-04-26 10:49 -35.82867 148.62357 38360 ft 419 kts 236°
2026-04-26 10:50 -35.86205 148.56479 38361 ft 418 kts 236°
2026-04-26 10:50 -35.90068 148.49663 38361 ft 416 kts 236°
2026-04-26 10:51 -35.94487 148.41811 38355 ft 416 kts 236°
2026-04-26 10:52 -35.97763 148.35976 38340 ft 416 kts 236°
2026-04-26 10:52 -36.01062 148.30098 38339 ft 416 kts 237°
2026-04-26 10:53 -36.04365 148.24201 38331 ft 417 kts 237°
2026-04-26 10:53 -36.07670 148.18292 38328 ft 417 kts 236°
2026-04-26 10:54 -36.12615 148.09435 38319 ft 419 kts 236°
2026-04-26 10:54 -36.15936 148.03496 38325 ft 421 kts 236°
2026-04-26 10:55 -36.19299 147.97475 38321 ft 433 kts 236°
2026-04-26 10:55 -36.22775 147.91239 38318 ft 446 kts 236°
2026-04-26 10:56 -36.26309 147.84891 38321 ft 446 kts 236°
2026-04-26 10:56 -36.29817 147.78578 38304 ft 442 kts 235°
2026-04-26 10:57 -36.33287 147.72321 38310 ft 439 kts 235°
2026-04-26 10:57 -36.36746 147.66065 38303 ft 439 kts 235°
2026-04-26 10:58 -36.40165 147.59851 38307 ft 438 kts 235°
2026-04-26 10:58 -36.43600 147.53599 38309 ft 437 kts 234°
2026-04-26 10:59 -36.47025 147.47362 38303 ft 436 kts 234°
2026-04-26 10:59 -36.50443 147.41126 38308 ft 436 kts 234°
2026-04-26 11:00 -36.53831 147.34927 38314 ft 436 kts 234°
2026-04-26 11:00 -36.57242 147.28680 38312 ft 436 kts 234°
2026-04-26 11:01 -36.60648 147.22434 38307 ft 436 kts 234°
2026-04-26 11:01 -36.64056 147.16171 38301 ft 436 kts 234°
2026-04-26 11:02 -36.67470 147.09887 38306 ft 443 kts 234°
2026-04-26 11:02 -36.70969 147.03436 38306 ft 455 kts 234°
2026-04-26 11:03 -36.74531 146.96868 38304 ft 462 kts 234°
2026-04-26 11:03 -36.78121 146.90202 38298 ft 461 kts 234°
2026-04-26 11:04 -36.81677 146.83593 38285 ft 461 kts 234°
2026-04-26 11:04 -36.85251 146.76943 38296 ft 460 kts 234°
2026-04-26 11:05 -36.87024 146.73640 38026 ft 454 kts 234°
2026-04-26 11:05 -36.88789 146.70352 37075 ft 458 kts 235°
2026-04-26 11:05 -36.90579 146.67017 35960 ft 466 kts 236°
2026-04-26 11:05 -36.92404 146.63614 35000 ft 472 kts 237°
2026-04-26 11:06 -36.94234 146.60194 34366 ft 475 kts 238°
2026-04-26 11:06 -36.96074 146.56748 33705 ft 478 kts 238°
2026-04-26 11:06 -36.97926 146.53271 33045 ft 481 kts 238°
2026-04-26 11:06 -36.99788 146.49772 32392 ft 483 kts 238°
2026-04-26 11:07 -37.01628 146.46313 31755 ft 483 kts 238°
2026-04-26 11:07 -37.03490 146.42812 31032 ft 481 kts 238°
2026-04-26 11:07 -37.05344 146.39325 30292 ft 479 kts 238°
2026-04-26 11:07 -37.07187 146.35853 29480 ft 477 kts 238°
2026-04-26 11:08 -37.09024 146.32396 28668 ft 476 kts 238°
2026-04-26 11:08 -37.10852 146.28950 27868 ft 474 kts 238°
2026-04-26 11:08 -37.12667 146.25523 27116 ft 471 kts 238°
2026-04-26 11:08 -37.14475 146.22103 26365 ft 469 kts 238°
2026-04-26 11:09 -37.16268 146.18707 25637 ft 466 kts 238°
2026-04-26 11:09 -37.18053 146.15322 24923 ft 464 kts 238°
2026-04-26 11:09 -37.19830 146.11951 24242 ft 461 kts 239°
2026-04-26 11:09 -37.21589 146.08610 23494 ft 457 kts 239°
2026-04-26 11:10 -37.23337 146.05291 22694 ft 453 kts 239°
2026-04-26 11:10 -37.25044 146.02046 21936 ft 450 kts 239°
2026-04-26 11:10 -37.26761 145.98778 21167 ft 446 kts 239°
2026-04-26 11:10 -37.28464 145.95535 20426 ft 442 kts 240°
2026-04-26 11:11 -37.30137 145.92348 19696 ft 428 kts 240°
2026-04-26 11:11 -37.31743 145.89295 19001 ft 409 kts 241°
2026-04-26 11:11 -37.33277 145.86376 18260 ft 392 kts 241°
2026-04-26 11:11 -37.34749 145.83568 17463 ft 377 kts 241°
2026-04-26 11:12 -37.36164 145.80866 16704 ft 364 kts 241°
2026-04-26 11:12 -37.37538 145.78236 15953 ft 360 kts 241°
2026-04-26 11:12 -37.38922 145.75580 15216 ft 364 kts 241°
2026-04-26 11:12 -37.40314 145.72910 14491 ft 366 kts 240°
2026-04-26 11:13 -37.41698 145.70258 13766 ft 368 kts 240°
2026-04-26 11:13 -37.43104 145.67562 12972 ft 368 kts 240°
2026-04-26 11:13 -37.44379 145.64777 12192 ft 365 kts 249°
2026-04-26 11:13 -37.45007 145.61729 11456 ft 359 kts 267°
2026-04-26 11:14 -37.45064 145.58588 10724 ft 357 kts 272°
2026-04-26 11:14 -37.45013 145.55462 9990 ft 356 kts 272°
2026-04-26 11:14 -37.44964 145.52362 9323 ft 352 kts 272°
2026-04-26 11:14 -37.44923 145.49339 9020 ft 338 kts 272°
2026-04-26 11:15 -37.44887 145.46468 8966 ft 317 kts 272°
2026-04-26 11:15 -37.44855 145.43792 8963 ft 295 kts 272°
2026-04-26 11:15 -37.44825 145.41318 8947 ft 279 kts 272°
2026-04-26 11:15 -37.44796 145.38892 8825 ft 276 kts 272°
2026-04-26 11:16 -37.44766 145.36549 8706 ft 275 kts 272°
2026-04-26 11:16 -37.44733 145.34084 8505 ft 275 kts 272°
2026-04-26 11:16 -37.44702 145.31687 8284 ft 274 kts 272°
2026-04-26 11:16 -37.44670 145.29285 8026 ft 274 kts 272°
2026-04-26 11:17 -37.44639 145.26884 7777 ft 273 kts 272°
2026-04-26 11:17 -37.44609 145.24517 7535 ft 273 kts 272°
2026-04-26 11:17 -37.44576 145.22125 7292 ft 273 kts 272°
2026-04-26 11:17 -37.44544 145.19732 7047 ft 273 kts 272°
2026-04-26 11:18 -37.44511 145.17352 6807 ft 272 kts 272°
2026-04-26 11:18 -37.44480 145.14966 6568 ft 272 kts 271°
2026-04-26 11:18 -37.44451 145.12594 6310 ft 271 kts 272°
2026-04-26 11:18 -37.44417 145.10228 6052 ft 270 kts 273°
2026-04-26 11:19 -37.44380 145.07864 5807 ft 269 kts 273°
2026-04-26 11:19 -37.44344 145.05514 5558 ft 268 kts 273°
2026-04-26 11:19 -37.44310 145.03218 5418 ft 255 kts 273°
2026-04-26 11:19 -37.44278 145.01066 5288 ft 245 kts 274°
2026-04-26 11:20 -37.44244 144.98922 5170 ft 246 kts 273°
2026-04-26 11:20 -37.44221 144.97465 5084 ft 246 kts 274°
2026-04-26 11:20 -37.44203 144.94608 4820 ft 246 kts 269°
2026-04-26 11:20 -37.44415 144.92474 4579 ft 243 kts 263°
2026-04-26 11:21 -37.44708 144.90416 4337 ft 236 kts 262°
2026-04-26 11:21 -37.45000 144.88417 4128 ft 229 kts 262°
2026-04-26 11:21 -37.45280 144.86473 3885 ft 223 kts 262°
2026-04-26 11:21 -37.45551 144.84577 3659 ft 217 kts 262°
2026-04-26 11:22 -37.45827 144.82721 3437 ft 214 kts 260°
2026-04-26 11:22 -37.46561 144.81130 3187 ft 218 kts 220°
2026-04-26 11:22 -37.47940 144.80399 3000 ft 217 kts 190°
2026-04-26 11:22 -37.49440 144.80424 2955 ft 217 kts 168°
2026-04-26 11:23 -37.50868 144.80790 2955 ft 203 kts 168°
2026-04-26 11:23 -37.52262 144.81060 2959 ft 201 kts 172°
2026-04-26 11:23 -37.53648 144.81303 2836 ft 199 kts 171°
2026-04-26 11:23 -37.55012 144.81556 2545 ft 197 kts 171°
2026-04-26 11:24 -37.56325 144.81804 2293 ft 185 kts 171°
2026-04-26 11:24 -37.57557 144.82036 2045 ft 173 kts 171°
2026-04-26 11:24 -37.58728 144.82255 1802 ft 167 kts 171°
2026-04-26 11:24 -37.59856 144.82467 1576 ft 161 kts 171°
2026-04-26 11:25 -37.60941 144.82670 1388 ft 155 kts 172°
2026-04-26 11:25 -37.61992 144.82864 1188 ft 150 kts 172°
2026-04-26 11:25 -37.63000 144.83070 999 ft 144 kts 171°
2026-04-26 11:25 -37.63989 144.83242 801 ft 144 kts 172°
2026-04-26 11:26 -37.64987 144.83434 569 ft 146 kts 173°
2026-04-26 11:26 -37.65987 144.83616 420 ft 143 kts 172°
2026-04-26 11:26 -37.66748 144.83758 401 ft 68 kts 171°
2026-04-26 11:26 -37.66993 144.83835 392 ft 30 kts 154°
2026-04-26 11:27 -37.67163 144.83986 386 ft 17 kts 142°
2026-04-26 11:27 -37.67171 144.83994 386 ft 0 kts 142°
2026-04-26 11:27 -37.67173 144.83995 386 ft 2 kts 142°
2026-04-26 11:27 -37.67196 144.84024 385 ft 7 kts 128°
2026-04-26 11:28 -37.67221 144.84100 384 ft 11 kts 97°
2026-04-26 11:28 -37.67202 144.84194 386 ft 11 kts 54°
2026-04-26 11:28 -37.67137 144.84245 389 ft 11 kts 14°
2026-04-26 11:28 -37.67056 144.84241 391 ft 12 kts 353°
2026-04-26 11:29 -37.66967 144.84226 392 ft 13 kts 352°
2026-04-26 11:29 -37.66953 144.84223 393 ft 0 kts 352°
2026-04-26 11:29 -37.66951 144.84223 393 ft 1 kts 352°
2026-04-26 11:29 -37.66940 144.84224 393 ft 2 kts
2026-04-26 11:30 -37.66923 144.84231 390 ft 1 kts 31°
2026-04-26 11:30 -37.66921 144.84235 392 ft 1 kts 51°
2026-04-26 11:30 -37.66915 144.84251 389 ft 2 kts 66°
2026-04-26 11:30 -37.66910 144.84276 389 ft 4 kts 75°
2026-04-26 11:31 -37.66903 144.84321 393 ft 6 kts 80°
2026-04-26 11:31 -37.66902 144.84327 394 ft 2 kts 80°
2026-04-26 11:31 -37.66900 144.84339 394 ft 0 kts 81°